Temperature
7 7 6 6 6 5 5 5 4 3 3 4 4 4 3 3 3 3 3 3 3 3 3 2 2 2 2 2 2 3 3 3 3 3 3 3 3 3
6 6 6 6 5 5 5 5 4 4 3 3 3 3 3 3 3 3 3 2 2 2 2 2 2 2 2 2 2 2 2 3 3 3 3 3 3 3
6 6 6 5 5 5 5 4 4 3 3 3 3 2 2 2 2 2 2 2 2 2 2 2 2 2 2 2 2 2 2 2 2 2 2 2 3 3
6 5 5 5 5 4 4 4 3 3 3 2 2 2 2 2 2 2 2 2 2 2 2 1 1 1 1 1 2 2 2 2 2 2 2 2 2 2
5 5 5 4 4 4 4 3 3 3 2 2 2 2 2 1 1 1 2 2 2 1 1 1 1 1 1 1 1 1 1 1 1 2 2 2 2 2
5 4 4 4 4 4 3 3 2 2 2 1 1 1 1 1 1 1 1 1 1 1 1 1 1 1 1 1 1 1 1 1 1 1 1 1 1 1
4 4 4 4 3 3 2 2 2 2 1 1 1 1 1 1 1 0 0 1 1 1 1 1 1 1 1 1 1 1 1 1 1 1 1 1 1 1
4 4 3 3 3 3 2 2 2 1 1 1 1 0 0 0 0 -0 -0 -0 0 0 -0 0 0 0 0 0 0 0 0 0 0 0 0 0 0 0
3 3 3 3 2 2 2 2 1 1 1 1 0 0 0 0 -0 -0 -0 -1 -1 -1 -1 -0 0 0 0 0 0 0 -0 -0 -0 -0 -0 -0 -0 -0
3 2 2 2 2 2 2 1 1 1 1 0 0 0 -0 -0 -0 -1 -1 -1 -0 -1 -1 -1 -0 -0 -0 -0 -0 -0 -0 -1 -1 -1 -0 -0 -0 -0
2 2 2 2 1 1 1 1 1 1 0 0 -0 -0 -0 -0 -1 -1 -1 -1 -1 -1 -1 -1 -1 -1 -0 -0 -0 -1 -1 -1 -1 -1 -1 -1 -1 -1
2 2 1 1 1 1 1 1 1 0 0 0 0 -0 -0 -0 -1 -1 -1 -1 -2 -2 -2 -2 -2 -2 -1 -1 -1 -1 -1 -1 -1 -1 -1 -1 -1 -1
1 1 1 1 1 1 0 0 0 -0 -0 -0 -0 -0 -0 -0 -1 -1 -1 -1 -2 -2 -2 -2 -2 -2 -2 -2 -1 -1 -1 -1 -1 -1 -1 -1 -1 -1
1 1 1 1 0 0 -0 -0 -0 -0 -0 -1 -1 -1 -1 -1 -1 -1 -1 -1 -2 -2 -2 -2 -2 -2 -3 -2 -2 -1 -1 -1 -1 -1 -1 -1 -1 -1
0 0 0 0 0 -0 -0 -0 -1 -1 -1 -1 -1 -1 -1 -1 -1 -1 -1 -1 -2 -2 -2 -2 -2 -2 -3 -3 -3 -2 -2 -2 -2 -1 -1 -1 -1 -1
-0 -0 -0 -0 -0 -0 -0 -1 -1 -1 -1 -1 -1 -1 -1 -1 -1 -1 -1 -1 -1 -1 -2 -2 -2 -2 -3 -2 -2 -2 -2 -2 -2 -2 -1 -1 -1 -1
-1 -1 -0 -0 -0 -1 -1 -1 -1 -1 -1 -1 -2 -2 -2 -2 -2 -2 -2 -2 -2 -2 -2 -2 -2 -2 -2 -3 -2 -2 -2 -2 -2 -2 -2 -1 -1 -1
-1 -1 -1 -1 -1 -1 -1 -1 -1 -1 -2 -2 -2 -2 -2 -2 -2 -2 -2 -2 -2 -2 -2 -2 -2 -2 -2 -2 -2 -2 -2 -2 -2 -2 -2 -2 -2 -1
-1 -1 -1 -1 -2 -2 -2 -2 -2 -2 -2 -2 -2 -2 -2 -2 -2 -2 -2 -2 -2 -2 -2 -2 -3 -3 -3 -3 -3 -3 -3 -3 -2 -2 -2 -2 -2 -2
-1 -1 -2 -2 -2 -2 -2 -2 -2 -2 -2 -2 -2 -2 -2 -2 -2 -2 -2 -2 -3 -3 -3 -3 -3 -3 -4 -4 -4 -3 -3 -3 -3 -3 -2 -2 -2 -2
-2 -2 -2 -2 -2 -2 -2 -2 -2 -2 -2 -2 -2 -2 -2 -3 -3 -3 -3 -3 -3 -3 -3 -3 -3 -4 -4 -4 -4 -3 -3 -3 -3 -3 -3 -3 -3 -2
-2 -2 -2 -2 -2 -2 -2 -3 -3 -3 -3 -3 -3 -3 -3 -3 -3 -3 -3 -3 -3 -3 -3 -3 -3 -3 -3 -4 -4 -4 -3 -3 -3 -3 -3 -3 -3 -3
-3 -3 -3 -3 -3 -3 -3 -3 -3 -3 -3 -3 -3 -3 -3 -3 -3 -3 -3 -3 -3 -3 -3 -3 -3 -3 -4 -4 -4 -4 -3 -3 -3 -3 -3 -3 -3 -3
Wind_Speed
2 2 1 1 1 1 1 2 2 3 5 3 3 4 8 10 13 13 13 16 17 18 18 18 18 18 18 18 18 18 18 18 18 18 17 17 17 15
2 2 1 1 1 1 1 2 2 3 4 4 4 6 8 10 13 13 12 16 16 17 18 18 18 18 18 18 18 18 18 18 18 18 18 17 16 14
1 2 1 1 1 1 1 1 2 2 5 6 5 5 6 7 10 11 11 11 12 16 17 17 17 17 18 18 18 18 19 18 18 18 17 16 15 14
2 2 2 1 1 2 1 2 2 2 4 8 7 6 7 7 8 8 9 10 11 15 17 17 17 17 17 18 17 18 18 17 17 16 16 16 16 15
3 2 2 1 2 2 2 2 2 3 3 5 7 6 6 6 7 7 7 7 10 13 15 15 16 17 18 17 18 18 17 16 16 16 16 16 16 15
2 2 2 2 2 2 2 2 2 3 3 4 6 6 6 6 5 7 8 7 8 10 11 13 16 17 17 17 17 17 17 16 16 16 16 16 15 14
1 2 2 2 3 2 2 2 2 3 3 4 6 6 6 6 7 6 8 9 7 5 6 8 10 9 11 15 15 17 17 16 16 16 16 16 15 14
2 1 2 2 3 4 4 4 4 4 4 4 5 6 8 7 7 7 7 8 7 4 7 9 7 7 8 9 15 17 16 16 17 16 16 15 13 12
2 1 1 2 2 2 4 5 5 6 6 5 5 7 7 7 7 7 7 8 8 7 7 8 6 7 8 11 16 16 16 16 16 16 15 14 13 12
2 2 2 2 2 3 2 3 3 4 5 4 4 6 6 6 6 6 7 7 6 5 4 5 6 6 8 9 14 15 15 16 16 16 15 14 13 12
2 1 1 2 4 4 2 3 4 4 5 6 7 7 9 10 8 5 5 6 7 6 3 3 4 6 6 5 8 13 15 16 16 16 15 14 13 12
1 1 2 2 4 4 2 2 4 5 5 5 6 7 7 7 8 5 4 5 5 5 3 3 4 5 5 3 4 7 10 13 15 15 15 14 14 9
1 1 2 3 4 4 4 2 4 5 3 3 4 4 5 5 5 5 4 4 5 5 4 4 4 4 4 5 5 5 6 7 9 10 13 15 14 10
1 1 1 2 3 4 3 4 5 4 2 3 3 4 5 5 5 6 6 5 5 7 7 6 4 5 5 6 6 5 6 6 6 7 8 12 12 12
1 1 1 2 3 3 3 4 4 2 2 3 3 4 4 5 5 6 6 5 6 6 7 6 5 5 4 5 6 6 6 5 6 6 6 6 6 6
1 1 2 3 3 3 3 3 2 2 2 2 3 4 4 4 5 5 5 6 5 5 6 6 5 5 4 5 5 6 6 5 6 7 7 6 6 6
1 2 2 1 2 2 2 2 3 3 3 3 3 4 5 5 5 5 4 4 4 5 6 5 6 5 4 4 5 5 5 5 6 6 6 7 6 6
2 1 1 1 1 1 2 2 3 3 3 3 3 4 4 5 5 5 4 4 5 5 5 6 6 5 4 3 3 4 4 5 6 6 5 5 7 6
2 1 0 0 1 1 2 2 3 3 3 3 3 4 4 4 4 5 5 5 5 5 5 5 5 5 6 6 5 4 4 6 6 5 5 4 6 7
1 0 1 1 1 1 2 2 3 3 3 3 3 4 4 4 4 5 5 5 5 6 6 5 4 5 4 5 5 5 7 5 4 5 5 5 5 7
0 0 1 1 1 2 2 2 2 3 3 3 3 4 4 4 4 4 5 7 6 5 6 6 6 9 5 3 4 5 5 7 6 4 4 4 4 4
0 1 1 1 1 2 2 2 2 3 3 3 3 4 4 4 4 5 5 5 5 5 5 6 6 5 3 3 4 6 6 7 8 9 6 4 2 3
1 1 1 1 1 2 2 2 2 3 3 3 3 4 4 4 4 4 4 4 4 5 5 6 5 4 4 3 4 4 6 7 6 6 5 8 7 7
Wind_Direction
165 167 183 231 244 249 225 212 234 294 300 287 302 307 325 326 326 330 328 327 330 331 331 331 330 329 327 328 327 325 323 324 324 323 320 318 316 312
168 164 199 240 263 268 252 254 233 251 281 285 290 301 314 321 324 328 324 327 328 328 329 330 331 333 332 330 328 329 329 328 327 326 323 321 316 312
181 186 223 246 258 268 268 270 265 256 281 294 295 304 309 312 321 325 325 324 324 325 327 329 331 331 332 331 330 329 329 329 328 326 325 324 323 318
201 199 233 259 266 273 274 272 273 267 273 294 306 310 309 310 313 317 324 325 323 323 327 330 333 333 332 331 329 327 327 329 330 329 329 327 325 322
193 201 222 225 269 284 287 282 289 301 291 292 301 307 309 312 318 317 316 318 322 323 326 332 334 334 332 330 329 329 331 333 332 332 331 329 327 324
198 205 212 220 237 252 276 279 296 311 311 304 303 308 308 311 319 324 324 324 321 324 326 330 328 328 330 332 332 334 335 334 333 332 330 329 329 327
208 218 224 251 266 267 282 282 294 302 308 309 308 311 314 325 324 321 318 320 317 321 322 321 323 325 328 329 332 333 334 334 332 331 329 329 328 327
213 250 259 263 284 304 308 306 300 295 299 300 304 306 309 311 313 314 316 322 320 328 325 314 319 315 319 324 328 331 334 334 334 333 332 331 330 331
207 227 280 292 311 294 306 317 317 313 301 291 292 294 299 303 308 310 313 313 304 308 316 306 315 310 314 321 325 329 333 335 337 337 337 336 337 336
214 219 234 266 285 299 303 310 307 306 302 299 280 288 297 301 296 297 302 304 296 302 313 299 310 308 311 315 321 328 333 337 340 340 339 340 340 339
224 223 232 253 285 309 310 305 312 315 326 323 318 318 322 324 324 322 319 319 313 312 318 304 305 308 304 298 319 331 336 338 338 340 341 342 343 341
249 254 267 286 291 305 300 294 305 313 319 324 332 333 332 329 332 328 308 307 309 309 313 318 307 322 316 301 314 329 330 332 337 340 342 343 343 344
241 274 277 300 303 308 317 296 300 316 320 326 329 330 330 331 329 325 309 295 298 295 304 315 306 310 296 302 309 314 324 329 336 336 337 340 342 343
234 261 284 315 328 327 329 325 331 343 346 341 336 331 330 327 321 318 313 304 286 281 291 299 293 299 305 304 307 316 321 327 334 330 335 338 341 339
211 254 335 355 354 349 348 351 358 358 343 337 329 321 314 310 313 317 321 318 313 310 307 299 289 291 292 295 305 310 316 319 329 331 334 336 333 334
74 67 38 33 16 0 2 7 359 332 329 317 314 314 317 321 321 323 324 328 329 324 328 328 317 297 296 298 296 306 314 315 326 329 327 329 337 341
89 63 45 26 15 9 6 1 352 346 345 333 324 325 327 328 325 327 327 330 327 324 330 335 337 326 288 283 301 309 315 313 315 324 330 335 336 342
88 101 52 2 336 336 344 343 339 338 335 330 328 326 325 326 330 335 336 333 331 327 325 327 334 335 332 316 289 299 317 314 320 326 329 331 331 338
85 116 177 273 308 319 319 318 318 321 324 326 326 324 322 325 332 337 339 337 332 327 324 325 336 346 345 335 321 323 321 319 325 330 331 321 316 319
81 173 248 277 298 304 305 312 317 323 325 323 324 324 325 328 332 334 334 331 328 327 329 333 338 339 328 312 308 312 324 319 322 326 325 317 307 311
325 289 298 300 296 296 299 304 309 309 313 317 322 326 326 328 328 328 329 330 332 330 332 330 319 320 308 310 320 324 328 333 327 311 320 324 327 341
268 282 298 301 300 299 298 301 305 307 312 315 320 322 321 322 322 324 328 328 330 329 323 319 323 333 346 347 333 325 331 340 346 343 336 326 317 340
265 282 293 292 294 297 301 300 297 299 303 307 313 315 317 318 320 321 325 324 326 332 332 331 337 344 342 334 330 328 333 340 347 354 352 348 336 318
Height
1506 1506 1506 1506 1505 1505 1503 1502 1500 1495 1491 1490 1489 1487 1484 1481 1478 1474 1471 1467 1463 1460 1456 1453 1449 1446 1442 1439 1435 1432 1429 1426 1423 1420 1417 1415 1412 1410
1504 1504 1504 1503 1503 1502 1501 1499 1498 1495 1490 1487 1485 1483 1481 1478 1474 1471 1467 1464 1460 1456 1453 1449 1446 1442 1438 1435 1432 1428 1425 1422 1419 1416 1413 1410 1408 1406
1501 1501 1501 1500 1499 1498 1497 1496 1494 1492 1488 1484 1483 1480 1477 1474 1470 1467 1464 1460 1456 1453 1449 1445 1442 1438 1435 1431 1428 1424 1421 1418 1415 1411 1408 1406 1404 1401
1498 1498 1498 1497 1496 1495 1494 1492 1491 1489 1486 1481 1478 1476 1473 1470 1467 1463 1460 1457 1453 1449 1446 1442 1438 1435 1431 1428 1424 1421 1417 1414 1411 1408 1405 1402 1400 1397
1496 1495 1495 1494 1493 1492 1491 1489 1487 1485 1483 1479 1475 1473 1470 1467 1463 1460 1456 1453 1450 1446 1442 1439 1435 1431 1428 1424 1420 1417 1414 1410 1407 1404 1401 1398 1396 1393
1493 1492 1492 1491 1490 1489 1487 1486 1484 1482 1480 1477 1473 1469 1466 1463 1460 1456 1452 1449 1445 1442 1439 1436 1432 1428 1425 1421 1417 1414 1410 1407 1404 1401 1398 1395 1392 1390
1490 1490 1489 1488 1487 1486 1484 1483 1481 1478 1476 1473 1470 1466 1463 1460 1457 1453 1449 1445 1442 1439 1435 1432 1428 1425 1421 1418 1414 1411 1407 1404 1401 1398 1395 1392 1389 1386
1487 1486 1486 1485 1484 1483 1482 1480 1478 1476 1473 1470 1467 1464 1460 1458 1454 1451 1447 1443 1438 1437 1432 1428 1426 1421 1418 1415 1411 1408 1405 1402 1398 1395 1391 1388 1385 1383
1483 1483 1482 1482 1481 1479 1478 1477 1475 1473 1471 1468 1465 1462 1458 1455 1452 1449 1445 1442 1438 1434 1430 1425 1423 1419 1416 1412 1409 1406 1403 1399 1395 1392 1389 1385 1382 1380
1480 1480 1479 1478 1477 1476 1475 1473 1471 1469 1467 1465 1462 1459 1456 1453 1450 1447 1443 1439 1435 1432 1429 1424 1420 1416 1413 1410 1407 1404 1400 1397 1393 1390 1386 1383 1380 1377
1477 1476 1476 1475 1474 1473 1472 1470 1468 1466 1464 1462 1460 1457 1454 1451 1448 1444 1441 1437 1432 1429 1426 1422 1417 1414 1410 1407 1405 1402 1398 1395 1391 1387 1384 1381 1377 1375
1473 1473 1473 1472 1471 1470 1469 1467 1464 1462 1460 1458 1456 1453 1451 1448 1445 1442 1439 1435 1430 1427 1424 1421 1417 1413 1408 1405 1402 1399 1396 1393 1389 1386 1382 1379 1376 1373
1470 1470 1469 1469 1468 1467 1466 1464 1462 1460 1458 1455 1452 1450 1448 1445 1442 1439 1436 1433 1430 1426 1423 1420 1416 1413 1410 1404 1400 1397 1394 1390 1387 1383 1380 1377 1374 1371
1468 1467 1466 1466 1465 1464 1463 1461 1460 1458 1455 1453 1450 1447 1445 1442 1439 1437 1434 1431 1428 1425 1422 1419 1416 1412 1408 1403 1399 1395 1392 1389 1385 1382 1378 1376 1373 1370
1465 1465 1464 1464 1463 1461 1460 1458 1457 1455 1453 1450 1448 1445 1443 1440 1437 1435 1432 1429 1426 1423 1420 1418 1415 1411 1408 1404 1399 1395 1391 1387 1384 1381 1377 1374 1371 1368
1463 1462 1462 1461 1460 1459 1457 1456 1455 1453 1451 1449 1446 1444 1441 1439 1436 1433 1430 1427 1424 1421 1419 1416 1413 1410 1406 1403 1399 1394 1391 1387 1384 1380 1377 1373 1370 1367
1460 1460 1459 1458 1457 1456 1455 1454 1452 1451 1449 1447 1445 1442 1440 1437 1434 1432 1429 1426 1423 1419 1416 1414 1411 1408 1405 1402 1398 1394 1390 1387 1383 1380 1376 1372 1370 1367
1458 1457 1456 1456 1455 1454 1453 1451 1450 1449 1448 1446 1443 1441 1438 1436 1433 1431 1428 1425 1422 1419 1415 1412 1409 1406 1403 1400 1398 1393 1390 1386 1383 1380 1377 1373 1369 1367
1455 1455 1454 1454 1453 1452 1451 1450 1449 1448 1446 1444 1442 1440 1438 1435 1432 1430 1427 1424 1421 1418 1415 1412 1409 1405 1402 1398 1396 1394 1390 1386 1383 1380 1377 1373 1370 1367
1453 1453 1452 1452 1451 1451 1450 1448 1447 1446 1445 1443 1441 1439 1437 1434 1432 1429 1426 1423 1421 1417 1414 1412 1409 1406 1403 1400 1395 1392 1390 1386 1382 1379 1376 1373 1371 1369
1450 1451 1451 1450 1449 1449 1448 1447 1446 1444 1443 1441 1440 1438 1436 1433 1431 1428 1426 1423 1420 1417 1414 1411 1409 1407 1403 1400 1396 1392 1390 1387 1384 1380 1377 1374 1371 1368
1449 1449 1448 1448 1448 1447 1446 1445 1444 1443 1441 1440 1438 1436 1434 1432 1430 1427 1425 1422 1419 1417 1414 1411 1409 1406 1403 1400 1396 1393 1389 1387 1385 1382 1379 1376 1373 1370
1447 1447 1446 1446 1446 1445 1444 1443 1442 1441 1440 1438 1436 1435 1433 1431 1429 1427 1424 1422 1419 1416 1413 1410 1408 1405 1403 1400 1397 1394 1391 1388 1385 1382 1380 1378 1376 1374